カタログに戻る

STARLINK-2545

運用中通信VLEO
NORAD 48289·PAYLOAD·🇺🇸 United States

打ち上げ Apr 29, 2021 から Cape Canaveral Space Force Station

Loading…

次のパス (今後24時間)

TLE

最新Source: CelesTrak SupGP

元期: Sep 14, 2026, 21:48 UTC

1 48289C 21036P   26257.90881944  .00049052  00000+0  15772-2 0  2578
2 48289  53.1575 275.1028 0001392  90.9031 339.3649 15.31682075    17

AllMySatでSTARLINK-2545をリアルタイム追跡

Download on the App Store